Regional Weather Roundup
Issued by NWS

Home | Current Version | Previous Version | Graphics & Text | Print | Product List | Glossary On
Versions: 1 2 3 4 5 6 7 8 9 10 11 12 13 14 15 16 17 18 19 20 21 22 23 24 25 26 27 28
000
ASUS45 KBOI 162310
RWRID

IDAHO REGIONAL WEATHER ROUNDUP
NATIONAL WEATHER SERVICE BOISE ID
500 PM MDT WED AUG 16 2017

NOTE: "FAIR" INDICATES FEW OR NO CLOUDS BELOW 12000 FEET
WITH NO SIGNIFICANT WEATHER AND/OR OBSTRUCTIONS TO VISIBILITY

IDZ012-014-170000-
SOUTHWEST IDAHO


CITY           SKY/WX    TMP DP  RH WIND       PRES   REMARKS
BOISE          SUNNY     88  39  17 NW13G24   29.97F
CALDWELL       SUNNY     88  39  17 N7        29.96F
MOUNTAIN HOME  SUNNY     90  42  18 NW13G18   29.96F
$$

IDZ016-017-170000-
SOUTHCENTRAL IDAHO


CITY           SKY/WX    TMP DP  RH WIND       PRES   REMARKS
BURLEY         SUNNY     83  38  20 W6        30.01F
JEROME         SUNNY     85  40  20 SW12      30.02F
TWIN FALLS     SUNNY     85  40  20 W7        30.03F
$$

IDZ019>023-170000-
SOUTHEAST IDAHO


CITY           SKY/WX    TMP DP  RH WIND       PRES   REMARKS
IDAHO FALLS    MOSUNNY   83  36  18 SW13G20   30.04F
POCATELLO      MOSUNNY   86  34  15 W17       30.04F
REXBURG        SUNNY     81  32  17 SW9G23    30.05F
$$

IDZ006-010-011-018-031-032-170000-
CENTRAL IDAHO MOUNTAINS


CITY           SKY/WX    TMP DP  RH WIND       PRES   REMARKS
MCCALL         SUNNY     79  26  14 S12       30.07F
HAILEY         MOSUNNY   81  39  22 S13G21    30.07F
STANLEY          N/A     77  33  20 N9        30.15F
SALMON         SUNNY     84  40  21 N9        29.95F
CHALLIS        SUNNY     83  32  16 SE6       30.01F
$$

IDZ002-004-006-007-026-170000-
NORTHERN IDAHO


CITY           SKY/WX    TMP DP  RH WIND       PRES   REMARKS
LEWISTON       SUNNY     89  40  17 VRB6      29.92F
LOWELL           N/A     92  39  15 S3        29.91F
COEUR D`ALENE  SUNNY     83  42  23 SW15G21   29.97F
MULLAN PASS    SUNNY     69  32  25 VRB6      30.15S
$$




USA.gov is the U.S. government's official web portal to all federal, state and local government web resources and services.